Location: Recife
(8.0585°S, 34.8848°W)
Time: 10:39:45
(UTC-03:00)

Explorer 11/Cluster Stage 4 - Pass Details

Date: 20 April 2026
Orbit: 463 x 1174 km, 28.8° (Epoch: 19 May)

Event Time Altitude Azimuth Distance (km) Brightness Sun altitude
Rises 17:34:41 0° 297° (WNW) 3,918 12.0 -5.6°
Reaches altitude 10° 17:37:38 10° 296° (WNW) 2,888 11.0 -6.3°
Maximum altitude 17:44:44 78° 210° (SSW) 963 7.1 -8.0°
Drops below altitude 10° 17:50:35 10° 124° (ESE) 2,404 8.5 -9.5°
Enters shadow 17:50:45 - 123° (ESE) 2,460 8.5 -9.5°
